Wind_Speed
15 16 17 18 18 18 19 20 21 22 22 22 23 23 22 22 22 22 21 21 21 21 21 21 21 21 22 21 22 22 22 22 22 22 22 22 23 23
16 16 17 17 18 19 20 20 21 22 22 23 23 23 24 24 24 24 24 24 23 23 23 23 23 23 23 23 24 24 24 24 24 24 24 24 24 25
17 17 17 18 19 19 19 20 20 20 21 22 23 23 23 24 24 25 25 25 24 24 25 25 25 25 26 25 25 26 26 26 26 26 26 26 26 26
18 18 19 19 20 20 19 20 20 20 20 21 22 22 23 25 25 26 26 26 26 26 26 27 27 27 27 27 27 27 27 28 28 27 28 28 29 29
19 19 20 21 21 21 21 21 21 21 22 22 23 24 25 25 25 25 26 27 27 27 28 28 28 29 29 28 28 29 29 30 30 30 30 30 30 30
21 21 21 21 21 21 21 21 22 22 23 23 24 25 25 25 26 25 26 27 28 29 29 29 29 30 30 31 31 31 32 32 32 32 32 32 33 33
21 22 22 22 22 22 22 22 23 23 24 25 26 26 26 26 27 28 28 29 29 29 30 30 31 32 32 32 33 34 34 34 35 35 36 36 36 37
21 21 21 22 23 23 23 24 24 24 25 26 27 28 28 28 28 29 30 30 31 31 33 33 34 34 35 35 35 36 36 36 37 38 38 39 40 41
21 22 22 23 24 24 25 25 26 26 27 28 28 29 29 29 30 31 32 33 33 34 35 35 35 36 37 37 37 37 38 39 40 41 41 42 43 44
23 23 24 24 24 25 26 26 27 28 29 30 30 30 31 31 32 33 33 34 34 35 36 37 37 37 38 38 38 39 40 40 41 43 43 44 44 45
23 24 25 26 26 27 28 28 29 29 30 31 31 32 33 33 34 35 35 36 36 36 37 38 38 38 38 39 39 40 41 42 43 44 44 44 45 46
25 25 26 27 29 30 30 30 30 31 31 32 33 33 35 35 36 36 36 36 36 36 37 38 39 40 39 39 40 41 42 43 43 44 44 45 46 47
26 26 27 29 30 31 31 32 33 33 34 34 34 35 36 37 37 36 36 36 37 37 38 38 38 39 40 40 41 42 43 43 44 45 46 46 47 48
27 29 30 31 31 31 31 31 32 33 34 34 34 35 36 36 37 37 37 37 38 38 38 39 40 40 41 41 42 42 42 43 43 44 44 45 47 47
28 28 29 29 30 30 31 32 33 33 33 35 36 36 37 37 38 39 38 38 39 39 40 40 41 42 42 43 43 43 43 43 43 44 44 45 45 46
28 28 28 29 30 31 32 32 33 34 35 36 36 37 38 39 39 39 39 39 39 40 40 41 42 43 44 44 44 44 44 44 44 44 45 45 45 44
29 30 30 31 33 34 34 35 35 35 36 37 38 38 39 39 40 40 40 40 41 41 42 42 43 44 44 45 45 46 45 45 44 44 44 44 44 44
31 31 32 33 34 34 34 35 35 35 37 38 38 38 39 39 40 40 41 41 41 41 42 42 43 43 44 44 44 44 45 44 44 44 44 44 43 44
32 32 33 34 34 34 35 35 36 36 37 38 38 39 39 40 40 41 41 42 42 42 42 42 43 43 42 42 42 43 43 42 42 42 42 42 42 43
32 32 33 34 34 35 36 37 37 37 38 38 39 39 40 41 41 41 42 42 42 42 42 42 41 41 41 42 41 41 41 41 40 40 40 40 40 40
32 33 34 34 35 36 37 37 37 37 37 38 38 38 39 39 40 40 41 41 41 41 41 40 40 40 40 40 40 40 39 39 39 39 38 38 38 38
33 34 34 35 36 36 37 37 37 37 37 37 38 38 38 38 39 39 39 38 38 38 39 38 38 38 38 37 37 38 37 37 37 37 36 36 36 36
33 34 35 36 36 37 37 37 37 37 37 37 37 37 37 37 37 36 36 36 37 37 37 37 37 36 36 36 36 35 35 35 35 35 35 34 34 34
Wind_Direction
272 270 269 269 269 270 272 273 273 273 273 274 275 276 276 278 276 276 277 278 278 278 278 278 275 274 275 275 274 274 274 275 275 275 275 274 273 271
277 274 273 272 271 273 276 276 276 274 271 274 277 277 278 276 275 276 277 278 278 277 276 276 273 273 274 275 276 275 275 275 275 274 274 274 274 273
278 276 275 276 276 277 279 279 278 276 274 275 277 279 280 279 279 277 276 277 278 277 277 277 274 273 273 274 275 275 275 275 275 275 273 273 273 273
277 278 277 276 277 277 279 280 278 278 278 278 280 281 281 282 281 278 277 276 276 276 276 277 276 274 274 273 273 274 274 274 274 275 274 274 273 273
278 279 280 281 278 279 280 278 278 278 279 279 280 281 281 283 283 282 281 280 280 278 278 278 277 276 275 274 274 274 273 273 274 274 274 274 275 275
279 279 280 281 280 279 280 280 279 279 280 279 280 281 282 282 283 284 283 283 282 281 281 281 279 278 276 275 273 273 274 273 273 274 274 274 275 276
281 281 279 279 279 280 280 279 279 279 280 281 282 283 282 283 283 283 284 284 284 282 281 281 279 279 278 278 276 275 274 274 273 273 273 274 275 276
282 281 280 279 279 279 279 279 280 281 281 281 283 283 283 283 284 284 285 285 283 283 283 282 281 280 278 277 276 276 276 275 275 275 274 275 276 276
284 283 281 279 280 280 281 282 281 282 283 283 283 285 284 282 283 283 284 285 285 284 284 285 284 282 280 279 278 277 277 277 277 276 276 276 276 275
284 283 281 280 280 281 282 283 283 284 284 284 283 284 284 284 284 284 285 285 286 285 284 283 282 283 282 281 280 279 279 279 278 278 278 277 278 277
284 283 282 283 283 283 283 283 283 284 284 285 284 284 283 284 285 285 285 285 285 285 285 283 281 282 282 282 282 281 282 281 280 279 279 278 279 278
287 286 284 284 285 284 284 284 284 284 285 286 286 286 286 286 287 286 286 286 285 285 285 284 283 283 283 282 281 282 281 280 279 279 280 280 279 279
289 288 287 286 285 284 283 284 285 285 285 287 287 286 287 287 287 288 287 287 286 285 285 286 285 285 285 284 283 283 282 282 281 280 280 281 280 280
291 290 289 288 286 285 285 286 286 287 287 287 287 288 288 289 288 289 288 287 287 287 287 287 288 287 287 286 285 285 284 283 283 283 283 282 281 281
292 293 292 290 290 289 289 288 288 288 288 287 288 289 290 290 290 289 289 289 288 288 288 288 289 289 288 288 288 287 287 286 285 284 284 284 284 284
294 294 293 292 292 292 290 289 289 289 290 290 291 292 292 291 291 291 291 291 291 291 291 291 290 291 291 290 290 289 287 286 286 286 285 285 284 283
296 296 295 294 295 294 292 291 290 291 291 292 293 293 293 293 292 293 292 292 291 291 291 291 291 291 291 291 290 290 289 288 287 286 286 285 285 285
297 298 297 297 297 297 296 296 295 295 295 295 295 294 294 293 294 293 294 293 292 292 293 293 293 293 293 293 292 291 289 288 287 287 286 286 285 285
298 299 299 300 300 299 298 299 299 298 297 296 296 295 294 294 294 294 294 294 293 293 293 294 294 294 295 294 294 292 291 289 288 287 286 285 284 284
299 300 300 301 301 300 300 301 302 302 301 299 297 295 294 294 294 294 295 295 295 295 295 295 295 295 296 295 294 293 292 290 289 288 287 286 285 285
299 300 300 301 301 301 302 302 302 303 302 301 299 298 297 297 297 297 297 297 298 298 298 297 297 296 296 296 295 294 293 292 290 289 288 286 285 285
300 300 301 301 302 302 303 303 302 302 302 301 300 299 299 299 299 299 299 299 299 299 299 299 298 298 298 297 296 295 294 293 292 290 289 287 286 286
302 302 302 302 303 303 304 304 304 303 303 302 302 302 301 301 301 301 301 302 302 302 301 301 300 299 299 298 297 296 295 295 294 292 291 290 288 288
Height
5889 5889 5889 5888 5888 5888 5887 5887 5887 5886 5885 5884 5884 5883 5882 5882 5881 5881 5880 5880 5878 5877 5877 5876 5875 5875 5874 5874 5873 5873 5872 5871 5871 5870 5869 5869 5868 5868
5885 5885 5884 5884 5883 5883 5882 5881 5881 5880 5880 5879 5878 5877 5877 5876 5875 5875 5874 5873 5872 5872 5871 5870 5870 5869 5868 5868 5867 5867 5866 5865 5864 5864 5863 5862 5862 5861
5881 5881 5880 5879 5879 5877 5876 5876 5875 5874 5874 5874 5873 5872 5871 5870 5869 5868 5867 5867 5866 5866 5865 5864 5863 5862 5862 5861 5860 5860 5859 5858 5857 5857 5856 5855 5855 5854
5877 5876 5875 5874 5874 5873 5872 5871 5870 5870 5869 5868 5867 5866 5865 5864 5863 5862 5861 5860 5859 5859 5858 5857 5856 5855 5854 5854 5853 5852 5852 5851 5850 5849 5848 5848 5847 5846
5872 5872 5871 5869 5869 5868 5867 5866 5865 5865 5864 5863 5862 5860 5859 5858 5856 5855 5854 5853 5852 5851 5850 5849 5848 5847 5847 5846 5845 5845 5844 5843 5842 5841 5840 5839 5839 5838
5868 5867 5866 5864 5863 5862 5862 5861 5860 5859 5858 5857 5856 5855 5853 5851 5850 5849 5847 5846 5845 5843 5842 5842 5841 5839 5839 5838 5837 5836 5835 5834 5833 5832 5831 5830 5830 5829
5862 5861 5860 5859 5858 5857 5856 5855 5854 5853 5852 5851 5850 5848 5847 5845 5843 5842 5840 5839 5837 5836 5834 5833 5832 5831 5830 5829 5828 5827 5826 5825 5824 5823 5822 5821 5819 5818
5857 5856 5855 5854 5853 5851 5850 5849 5848 5847 5846 5844 5843 5841 5840 5838 5836 5834 5833 5831 5830 5828 5826 5824 5823 5822 5820 5820 5818 5817 5816 5814 5813 5812 5811 5809 5808 5807
5851 5850 5849 5848 5847 5845 5844 5843 5842 5840 5839 5837 5836 5834 5832 5830 5828 5826 5825 5823 5821 5819 5817 5815 5813 5811 5809 5809 5808 5807 5805 5803 5802 5800 5799 5797 5796 5794
5846 5844 5843 5842 5840 5839 5837 5836 5835 5833 5832 5830 5828 5826 5824 5822 5820 5818 5816 5814 5812 5810 5807 5805 5803 5801 5799 5797 5796 5795 5793 5791 5790 5788 5786 5785 5783 5781
5840 5839 5837 5836 5834 5833 5831 5829 5827 5825 5823 5822 5820 5818 5815 5813 5811 5809 5807 5805 5802 5800 5797 5795 5793 5791 5789 5786 5785 5783 5780 5778 5776 5775 5773 5771 5769 5767
5834 5832 5830 5829 5827 5825 5823 5821 5819 5817 5815 5814 5811 5809 5807 5804 5802 5800 5797 5794 5792 5790 5787 5784 5782 5779 5778 5775 5773 5770 5768 5765 5763 5761 5759 5757 5755 5753
5827 5825 5823 5821 5819 5817 5815 5813 5811 5809 5807 5804 5802 5799 5797 5794 5792 5789 5787 5784 5782 5779 5777 5774 5771 5768 5765 5763 5761 5758 5755 5753 5750 5748 5745 5743 5741 5739
5820 5817 5815 5813 5811 5809 5806 5804 5802 5800 5797 5795 5792 5790 5787 5784 5782 5779 5776 5773 5771 5768 5765 5762 5759 5756 5753 5751 5748 5746 5742 5739 5737 5734 5731 5729 5727 5724
5812 5810 5808 5805 5803 5800 5798 5795 5793 5790 5788 5785 5782 5780 5777 5774 5771 5768 5765 5762 5760 5757 5753 5750 5747 5744 5741 5738 5735 5732 5729 5726 5723 5720 5718 5715 5712 5710
5805 5803 5800 5798 5795 5792 5789 5786 5783 5780 5778 5775 5772 5769 5766 5763 5760 5757 5754 5751 5748 5744 5741 5738 5734 5731 5727 5724 5721 5718 5715 5712 5709 5706 5703 5701 5698 5695
5798 5795 5792 5790 5787 5783 5779 5776 5773 5770 5767 5765 5762 5759 5756 5752 5749 5746 5742 5739 5735 5732 5729 5725 5721 5718 5714 5711 5707 5703 5700 5697 5695 5692 5689 5686 5684 5681
5790 5787 5784 5780 5777 5773 5770 5767 5763 5760 5757 5754 5751 5747 5744 5741 5737 5734 5730 5727 5723 5719 5716 5712 5709 5705 5701 5697 5693 5690 5686 5683 5680 5678 5675 5672 5670 5667
5782 5778 5775 5771 5768 5764 5760 5757 5754 5750 5746 5743 5740 5736 5733 5729 5726 5722 5718 5715 5711 5707 5703 5699 5696 5692 5688 5684 5680 5676 5673 5670 5667 5664 5661 5658 5656 5653
5773 5770 5766 5763 5759 5755 5751 5747 5744 5740 5736 5732 5728 5725 5721 5717 5713 5710 5706 5702 5698 5694 5690 5686 5682 5679 5675 5671 5668 5664 5660 5656 5653 5651 5648 5644 5642 5639
5764 5760 5757 5753 5750 5746 5742 5738 5733 5729 5725 5721 5717 5713 5709 5705 5701 5697 5693 5690 5686 5682 5678 5674 5670 5666 5662 5658 5654 5651 5647 5643 5640 5637 5635 5632 5629 5626
5755 5751 5748 5744 5740 5736 5732 5727 5723 5718 5714 5710 5706 5701 5698 5694 5690 5686 5682 5678 5674 5670 5666 5662 5658 5654 5650 5646 5642 5638 5635 5631 5628 5624 5621 5619 5616 5614
5746 5742 5738 5734 5730 5726 5721 5717 5712 5708 5703 5699 5695 5691 5687 5683 5679 5675 5671 5667 5663 5658 5654 5650 5646 5642 5638 5634 5630 5626 5623 5620 5616 5613 5610 5607 5604 5602